Location: Newark
(51.3318°N, 0.0053°E)
Time: 02:56:59
(UTC+00:00)

Envisat - Pass Details

Date: 30 January 2022
Orbit: 764 x 765 km, 98.2° (Epoch: 28 May)

Event Time Altitude Azimuth Distance (km) Brightness Sun altitude
Rises 06:48:00 0° 4° (N) 3,244 6.1 -8.4°
Reaches altitude 10° 06:51:00 10° 346° (NNW) 2,313 5.2 -8.0°
Maximum altitude 06:54:16 17° 306° (NW) 1,844 4.4 -7.5°
Drops below altitude 10° 06:57:31 10° 265° (W) 2,305 4.9 -7.0°
Sets 07:00:31 0° 247° (WSW) 3,227 5.8 -6.6°
